Regional Weather Roundup
Issued by NWS

Home | Current Version | Previous Version | Text Only | Print | Product List | Glossary On
Versions: 1 2 3 4 5 6 7 8 9 10 11 12 13 14 15 16 17 18 19 20 21 22 23 24 25 26 27 28 29 30 31 32 33 34 35 36 37 38 39 40 41 42 43 44 45 46 47 48 49 50
000
ASUS45 KABQ 210610
RWRNM
WEATHER ROUNDUP FOR NEW MEXICO
NATIONAL WEATHER SERVICE ALBUQUERQUE NM
1200 AM MDT TUE APR 21 2015

NOTE: "FAIR" MEANS FEW OR NO CLOUDS BELOW 12,000 FEET AGL WITH NO
       SIGNIFICANT WEATHER OR OBSTRUCTIONS TO VISION.

      THIS PRODUCT IS RELEASED AS TWO VERSIONS.  ONE VERSION NEAR
      THE TOP OF THE HOUR CONTAINING PRELIMINARY DATA FROM ALBUQUERQUE
      AND OTHER STATIONS.  A FINAL VERSION WITH ADDITIONAL DATA IS
      ISSUED ABOUT 10 MINUTES AFTER THE HOUR.

NMZ501-503-504-510>518-210700-
NORTHWEST PLATEAU/NORTHCENTRAL MOUNTAINS

CITY           SKY/WX    TMP DP  RH WIND       PRES   REMARKS
FARMINGTON     PTCLDY    44  25  47 N5        29.95R
6HR MIN TEMP:  44; 6HR MAX TEMP:  69;

LOS ALAMOS     PTCLDY    48  19  31 SW9       30.03S
SANTA FE       MOCLDY    50  21  32 NE7       29.98S
6HR MIN TEMP:  48; 6HR MAX TEMP:  63;

TAOS           CLEAR     37  19  48 N6        30.04R WCI  33
ANGEL FIRE     FAIR      26  24  89 CALM      30.09R

$$
NMZ402-403-502-505>509-210700-
WESTCENTRAL MOUNTAINS/SOUTHWEST MOUNTAINS

CITY           SKY/WX    TMP DP  RH WIND       PRES   REMARKS
GALLUP         MOCLDY    48  18  30 VRB7      30.02S
6HR MIN TEMP:  43; 6HR MAX TEMP:  63;

GRANTS         MOCLDY    45  19  36 SW3       30.03F
SILVER CITY    MOCLDY    48  18  29 N9        29.99S

$$
NMZ407-409-411-412-210700-
SOUTHERN DESERTS

CITY           SKY/WX    TMP DP  RH WIND       PRES   REMARKS
LORDSBURG      FAIR      64  21  19 SW8       29.93R
DEMING         PTCLDY    56  20  24 W7        29.93R
6HR MIN TEMP:  56; 6HR MAX TEMP:  79;

LAS CRUCES     MOCLDY    63  20  19 CALM      29.93R
HOLLOMAN AFB   PTCLDY    59  26  27 NE7       29.89R
ALAMOGORDO     PTCLDY    66  25  20 W6        29.92R
T OR C         PTCLDY    55  21  26 NW10      29.93S
6HR MIN TEMP:  55; 6HR MAX TEMP:  74;


$$
NMZ519>523-210700-
CENTRAL VALLEYS/CENTRAL HIGHLANDS

CITY           SKY/WX    TMP DP  RH WIND       PRES   REMARKS
ALBUQUERQUE    MOCLDY    58  23  26 VRB5      29.98R
6HR MIN TEMP:  55; 6HR MAX TEMP:  71;

DOUBLE EAGLE   MOCLDY    53  23  32 SW9       30.00R
MORIARTY ARPT  MOCLDY    52  20  27 W12       30.02R
6HR MIN TEMP:  43; 6HR MAX TEMP:  66;

CLINES CORNERS CLOUDY    47  22  37 W10       30.01R
6HR MIN TEMP:  44; 6HR MAX TEMP:  60;

BELEN          MOCLDY    60  25  26 CALM      29.97F
6HR MIN TEMP:  59; 6HR MAX TEMP:  69;

SOCORRO        FAIR      55  22  28 W6        29.95S
6HR MIN TEMP:  53; 6HR MAX TEMP:  70;


$$
NMZ524>526-539-540-210700-
SOUTHCENTRAL MOUNTAINS

CITY           SKY/WX    TMP DP  RH WIND       PRES   REMARKS
RUIDOSO        MOCLDY    52  23  32 W7        30.06S

$$
NMZ527>531-210700-
NORTHEAST HIGHLANDS/NORTHEAST PLAINS

CITY           SKY/WX    TMP DP  RH WIND       PRES   REMARKS
LAS VEGAS      PTCLDY    39  33  79 NW3       30.02R
6HR MIN TEMP:  36; 6HR MAX TEMP:  59;

RATON          CLEAR     37  34  89 N5        30.01R WCI  33
6HR MIN TEMP:  37; 6HR MAX TEMP:  52;

CLAYTON        PTCLDY    43  39  86 SW3       29.97S
6HR MIN TEMP:  41; 6HR MAX TEMP:  48; 6HR PCP:  0.04;


$$
NMZ532>537-210700-
EASTCENTRAL PLAINS

CITY           SKY/WX    TMP DP  RH WIND       PRES   REMARKS
TUCUMCARI      PTCLDY    48  44  86 N12       29.93R
6HR MIN TEMP:  47; 6HR MAX TEMP:  70; 6HR PCP: TRACE;

CANNON AFB     PTCLDY    53  38  57 SE6       29.93R
6HR MIN TEMP:  51; 6HR MAX TEMP:  68; 6HR PCP: TRACE;

CLOVIS AIRPORT PTCLDY    54  36  50 SE7       29.94R

$$
NMZ028-029-538-210700-
SOUTHEAST PLAINS

CITY           SKY/WX    TMP DP  RH WIND       PRES   REMARKS
ROSWELL        MOCLDY    58  41  53 SE8       29.92S
6HR MIN TEMP:  57; 6HR MAX TEMP:  72;

ARTESIA        PTCLDY    54  41  62 SE8       29.93R
CARLSBAD       CLEAR     58  43  57 S9        29.90R
6HR MIN TEMP:  54; 6HR MAX TEMP:  72;

HOBBS          FAIR      55  41  58 S8        29.95R


$$


USA.gov is the U.S. government's official web portal to all federal, state and local government web resources and services.